| time (UTC) | temp F | wind direction | speed MPH | gust MPH | rain 1hr in | rain 24hr in | rain mn in | humidity % | barometer mb |
| 20260902170224 | 64 | 89 | 4.0 | 5.0 | 0.00 | 0.00 | 0.00 | 96 | 1024.2 |
| 20260902164823 | 64 | 290 | 2.0 | 2.0 | 0.00 | 0.00 | 0.00 | 95 | 1024.2 |
| 20260902164242 | 64 | 6 | 2.0 | 2.0 | 0.00 | 0.00 | 0.00 | 95 | 1024.2 |
| 20260902162723 | 63 | 275 | 3.0 | 3.0 | 0.00 | 0.00 | 0.00 | 96 | 1024.2 |
| 20260902162221 | 63 | 342 | 3.0 | 3.0 | 0.00 | 0.00 | 0.00 | 96 | 1024.5 |
| 20260902161820 | 63 | 163 | 3.0 | 7.0 | 0.00 | 0.00 | 0.00 | 96 | 1024.3 |
| 20260902161223 | 63 | 267 | 2.0 | 3.0 | 0.00 | 0.00 | 0.00 | 96 | 1024.2 |
| 20260902160720 | 64 | 302 | 2.0 | 2.0 | 0.00 | 0.00 | 0.00 | 95 | 1024.5 |
| 20260902155719 | 64 | 196 | 5.0 | 6.0 | 0.00 | 0.00 | 0.00 | 95 | 1024.5 |
| 20260902155220 | 64 | 169 | 6.0 | 8.0 | 0.00 | 0.00 | 0.00 | 94 | 1024.5 |
| 20260902154720 | 64 | 109 | 4.0 | 5.0 | 0.00 | 0.00 | 0.00 | 95 | 1024.5 |
| 20260902154218 | 63 | 92 | 5.0 | 7.0 | 0.00 | 0.00 | 0.00 | 97 | 1024.5 |
| 20260902153722 | 63 | 153 | 6.0 | 7.0 | 0.00 | 0.00 | 0.00 | 96 | 1024.5 |
| 20260902153219 | 63 | 344 | 2.0 | 3.0 | 0.00 | 0.00 | 0.00 | 97 | 1024.9 |
| 20260902152759 | 63 | 330 | 0.0 | 1.0 | 0.00 | 0.00 | 0.00 | 97 | 1024.9 |
| 20260902142244 | 63 | 125 | 4.0 | 6.0 | 0.00 | 0.00 | 0.00 | 96 | 1025.0 |
| 20260902141744 | 63 | 200 | 6.0 | 7.0 | 0.00 | 0.00 | 0.00 | 96 | 1024.9 |
| 20260902141242 | 63 | 207 | 4.0 | 8.0 | 0.00 | 0.00 | 0.00 | 96 | 1024.9 |
| 20260902140713 | 63 | 187 | 5.0 | 6.0 | 0.00 | 0.00 | 0.00 | 94 | 1024.9 |
| 20260902140242 | 62 | 157 | 4.0 | 5.0 | 0.00 | 0.00 | 0.00 | 96 | 1024.5 |
| 20260902135240 | 62 | 338 | 2.0 | 3.0 | 0.00 | 0.00 | 0.00 | 98 | 1024.5 |
| 20260902134745 | 62 | 184 | 4.0 | 6.0 | 0.00 | 0.00 | 0.00 | 98 | 1024.5 |
| 20260902134342 | 62 | 324 | 1.0 | 2.0 | 0.00 | 0.00 | 0.00 | 99 | 1024.5 |
| 20260902133740 | 61 | 183 | 3.0 | 5.0 | 0.00 | 0.00 | 0.00 | 99 | 1024.5 |
| 20260902133239 | 61 | 284 | 3.0 | 3.0 | 0.00 | 0.00 | 0.00 | 99 | 1024.5 |
| 20260902132739 | 61 | 342 | 1.0 | 2.0 | 0.00 | 0.00 | 0.00 | 99 | 1024.5 |
| 20260902132240 | 61 | 305 | 1.0 | 1.0 | 0.00 | 0.00 | 0.00 | 99 | 1024.5 |
| 20260902131739 | 60 | 348 | 2.0 | 2.0 | 0.00 | 0.00 | 0.00 | 99 | 1024.2 |
| 20260902131239 | 60 | 12 | 3.0 | 3.0 | 0.00 | 0.00 | 0.00 | 99 | 1024.2 |
| 20260902130739 | 60 | 102 | 4.0 | 5.0 | 0.00 | 0.00 | 0.00 | 99 | 1024.2 |
| 20260902130238 | 60 | 350 | 3.0 | 3.0 | 0.00 | 0.00 | 0.00 | 99 | 1024.2 |
| 20260902125737 | 60 | 23 | 2.0 | 3.0 | 0.00 | 0.00 | 0.00 | 99 | 1024.2 |
| 20260902125236 | 60 | 299 | 3.0 | 3.0 | 0.00 | 0.00 | 0.00 | 99 | 1024.2 |
| 20260902124738 | 59 | 355 | 2.0 | 2.0 | 0.00 | 0.00 | 0.00 | 99 | 1024.2 |
| 20260902124237 | 60 | 343 | 1.0 | 2.0 | 0.00 | 0.00 | 0.00 | 99 | 1024.3 |
| 20260902123736 | 60 | 1 | 2.0 | 3.0 | 0.00 | 0.00 | 0.00 | 99 | 1024.2 |
| 20260902123235 | 59 | 307 | 1.0 | 2.0 | 0.00 | 0.00 | 0.00 | 99 | 1024.2 |
| 20260902122738 | 60 | 339 | 1.0 | 2.0 | 0.00 | 0.00 | 0.00 | 99 | 1024.2 |
| 20260902122236 | 60 | 352 | 1.0 | 1.0 | 0.00 | 0.00 | 0.00 | 99 | 1024.5 |
| 20260902121234 | 59 | 335 | 1.0 | 1.0 | 0.00 | 0.00 | 0.00 | 99 | 1024.2 |
| 20260902120735 | 59 | 0.0 | 0.0 | 0.00 | 0.00 | 0.00 | 99 | 1024.3 | |
| 20260902120234 | 59 | 337 | 0.0 | 1.0 | 0.00 | 0.00 | 0.00 | 99 | 1024.2 |
| 20260902115834 | 59 | 358 | 1.0 | 2.0 | 0.00 | 0.00 | 0.00 | 99 | 1024.5 |
| 20260902115236 | 59 | 338 | 0.0 | 1.0 | 0.00 | 0.00 | 0.00 | 99 | 1024.3 |
| 20260902114733 | 59 | 0.0 | 0.0 | 0.00 | 0.00 | 0.00 | 99 | 1024.2 | |
| 20260902114233 | 59 | 338 | 1.0 | 1.0 | 0.00 | 0.00 | 0.00 | 99 | 1024.5 |
| 20260902113833 | 59 | 348 | 1.0 | 2.0 | 0.00 | 0.00 | 0.00 | 99 | 1024.2 |
| 20260902112731 | 59 | 0.0 | 0.0 | 0.00 | 0.00 | 0.00 | 99 | 1024.5 | |
| 20260902112233 | 59 | 0.0 | 0.0 | 0.00 | 0.00 | 0.00 | 99 | 1024.5 | |
| 20260902111731 | 59 | 0.0 | 0.0 | 0.00 | 0.00 | 0.00 | 99 | 1024.5 | |
| 20260902102226 | 58 | 0.0 | 0.0 | 0.00 | 0.00 | 0.00 | 99 | 1024.2 | |
| 20260902101226 | 58 | 0.0 | 0.0 | 0.00 | 0.00 | 0.00 | 99 | 1023.8 | |
| 20260902100727 | 58 | 0.0 | 0.0 | 0.00 | 0.00 | 0.00 | 99 | 1024.2 | |
| 20260902100329 | 58 | 0.0 | 0.0 | 0.00 | 0.00 | 0.00 | 99 | 1024.2 | |
| 20260902095826 | 58 | 0.0 | 0.0 | 0.00 | 0.00 | 0.00 | 99 | 1023.8 | |
| 20260902095325 | 58 | 0.0 | 0.0 | 0.00 | 0.00 | 0.00 | 99 | 1023.8 | |
| 20260902094724 | 58 | 0.0 | 0.0 | 0.00 | 0.00 | 0.00 | 99 | 1023.8 | |
| 20260902094227 | 58 | 0.0 | 0.0 | 0.00 | 0.00 | 0.00 | 99 | 1023.8 | |
| 20260902093727 | 58 | 0.0 | 0.0 | 0.00 | 0.00 | 0.00 | 99 | 1024.0 | |
| 20260902092224 | 58 | 0.0 | 0.0 | 0.00 | 0.00 | 0.00 | 99 | 1023.8 | |
| 20260902091725 | 58 | 0.0 | 0.0 | 0.00 | 0.00 | 0.00 | 99 | 1023.8 | |
| 20260902091223 | 58 | 0.0 | 0.0 | 0.00 | 0.00 | 0.00 | 99 | 1023.8 | |
| 20260902090722 | 58 | 0.0 | 0.0 | 0.00 | 0.00 | 0.00 | 99 | 1023.8 | |
| 20260902080217 | 58 | 332 | 0.0 | 1.0 | 0.00 | 0.00 | 0.00 | 99 | 1023.5 |
| 20260902075717 | 58 | 342 | 1.0 | 2.0 | 0.00 | 0.00 | 0.00 | 99 | 1023.5 |
| 20260902075218 | 59 | 335 | 0.0 | 1.0 | 0.00 | 0.00 | 0.00 | 99 | 1023.5 |
| 20260902074717 | 59 | 324 | 0.0 | 1.0 | 0.00 | 0.00 | 0.00 | 99 | 1023.1 |
| 20260902074216 | 59 | 339 | 1.0 | 1.0 | 0.00 | 0.00 | 0.00 | 99 | 1023.5 |
| 20260902073745 | 59 | 0.0 | 0.0 | 0.00 | 0.00 | 0.00 | 99 | 1023.5 | |
| 20260902073246 | 59 | 337 | 0.0 | 1.0 | 0.00 | 0.00 | 0.00 | 99 | 1023.5 |
| 20260902072745 | 59 | 336 | 0.0 | 1.0 | 0.00 | 0.00 | 0.00 | 99 | 1023.5 |
| 20260902072244 | 58 | 338 | 0.0 | 1.0 | 0.00 | 0.00 | 0.00 | 99 | 1023.5 |
| 20260902071744 | 58 | 0.0 | 0.0 | 0.00 | 0.00 | 0.00 | 99 | 1023.1 | |
| 20260902071245 | 58 | 0.0 | 0.0 | 0.00 | 0.00 | 0.00 | 99 | 1023.5 | |
| 20260902070744 | 58 | 0.0 | 0.0 | 0.00 | 0.00 | 0.00 | 99 | 1023.5 | |
| 20260902070345 | 58 | 0.0 | 0.0 | 0.00 | 0.00 | 0.00 | 99 | 1023.5 | |
| 20260902065743 | 59 | 336 | 0.0 | 1.0 | 0.00 | 0.00 | 0.00 | 99 | 1023.5 |
| 20260902065245 | 59 | 341 | 0.0 | 1.0 | 0.00 | 0.00 | 0.00 | 99 | 1023.8 |
| 20260902064844 | 59 | 0.0 | 0.0 | 0.00 | 0.00 | 0.00 | 99 | 1023.8 | |
| 20260902064242 | 59 | 322 | 0.0 | 1.0 | 0.00 | 0.00 | 0.00 | 99 | 1023.8 |
| 20260902063741 | 59 | 0.0 | 0.0 | 0.00 | 0.00 | 0.00 | 99 | 1023.8 | |
| 20260902062742 | 59 | 0.0 | 0.0 | 0.00 | 0.00 | 0.00 | 99 | 1023.8 | |
| 20260902061740 | 59 | 0.0 | 0.0 | 0.00 | 0.00 | 0.00 | 99 | 1023.5 | |
| 20260902061241 | 59 | 0.0 | 0.0 | 0.00 | 0.00 | 0.00 | 99 | 1023.5 | |
| 20260902060240 | 59 | 0.0 | 0.0 | 0.00 | 0.00 | 0.00 | 99 | 1023.5 | |
| 20260902055739 | 59 | 0.0 | 0.0 | 0.00 | 0.00 | 0.00 | 99 | 1023.1 | |
| 20260902044735 | 59 | 0.0 | 0.0 | 0.00 | 0.00 | 0.00 | 99 | 1022.8 | |
| 20260902044235 | 59 | 0.0 | 0.0 | 0.00 | 0.00 | 0.00 | 99 | 1022.8 | |
| 20260902043734 | 59 | 0.0 | 0.0 | 0.00 | 0.00 | 0.00 | 99 | 1022.4 | |
| 20260902043235 | 59 | 333 | 0.0 | 1.0 | 0.00 | 0.00 | 0.00 | 99 | 1022.4 |
| 20260902042735 | 59 | 0.0 | 0.0 | 0.00 | 0.00 | 0.00 | 99 | 1022.4 | |
| 20260902042235 | 59 | 312 | 0.0 | 1.0 | 0.00 | 0.00 | 0.00 | 99 | 1022.4 |
| 20260902041733 | 59 | 0.0 | 0.0 | 0.00 | 0.00 | 0.00 | 99 | 1022.4 | |
| 20260902041232 | 59 | 0.0 | 0.0 | 0.00 | 0.00 | 0.00 | 99 | 1022.1 | |
| 20260902040733 | 59 | 0.0 | 0.0 | 0.00 | 0.00 | 0.00 | 99 | 1022.1 | |
| 20260902040232 | 59 | 0.0 | 0.0 | 0.00 | 0.00 | 0.00 | 99 | 1022.4 | |
| 20260902035733 | 59 | 0.0 | 0.0 | 0.00 | 0.00 | 0.49 | 99 | 1022.2 | |
| 20260902035232 | 59 | 0.0 | 0.0 | 0.00 | 0.00 | 0.49 | 99 | 1022.4 | |
| 20260902034731 | 59 | 0.0 | 0.0 | 0.00 | 0.00 | 0.49 | 99 | 1022.2 | |
| 20260902034231 | 59 | 0.0 | 0.0 | 0.00 | 0.00 | 0.49 | 99 | 1022.2 | |
| 20260902033731 | 59 | 0.0 | 0.0 | 0.00 | 0.00 | 0.49 | 99 | 1022.1 | |
| 20260902032730 | 59 | 0.0 | 0.0 | 0.00 | 0.00 | 0.49 | 99 | 1022.2 | |
| 20260902032230 | 59 | 0.0 | 0.0 | 0.00 | 0.00 | 0.49 | 99 | 1022.4 | |
| 20260902031730 | 59 | 0.0 | 0.0 | 0.00 | 0.00 | 0.49 | 99 | 1022.4 | |
| 20260902031228 | 59 | 0.0 | 0.0 | 0.00 | 0.00 | 0.49 | 99 | 1022.4 | |
| 20260902030728 | 59 | 0.0 | 0.0 | 0.00 | 0.00 | 0.49 | 99 | 1022.1 | |
| 20260902030329 | 59 | 321 | 0.0 | 1.0 | 0.00 | 0.00 | 0.49 | 99 | 1022.4 |
| 20260902025731 | 60 | 0.0 | 0.0 | 0.00 | 0.00 | 0.49 | 99 | 1022.4 | |
| 20260902025226 | 60 | 336 | 0.0 | 1.0 | 0.00 | 0.00 | 0.49 | 99 | 1022.4 |
| 20260902024726 | 60 | 336 | 0.0 | 1.0 | 0.00 | 0.00 | 0.49 | 99 | 1022.4 |
| 20260902024330 | 60 | 336 | 0.0 | 1.0 | 0.00 | 0.00 | 0.49 | 99 | 1022.2 |
| 20260902023727 | 60 | 343 | 1.0 | 2.0 | 0.00 | 0.00 | 0.49 | 99 | 1022.1 |
| 20260902023327 | 60 | 343 | 1.0 | 2.0 | 0.00 | 0.00 | 0.49 | 99 | 1021.7 |
| 20260902022726 | 60 | 1 | 2.0 | 3.0 | 0.00 | 0.00 | 0.49 | 99 | 1021.9 |
| 20260902022227 | 60 | 345 | 1.0 | 2.0 | 0.00 | 0.00 | 0.49 | 99 | 1022.1 |
| 20260902021725 | 60 | 7 | 3.0 | 5.0 | 0.00 | 0.00 | 0.49 | 99 | 1022.1 |
| 20260902021226 | 60 | 350 | 1.0 | 2.0 | 0.00 | 0.00 | 0.49 | 99 | 1022.1 |
| 20260902020723 | 60 | 78 | 3.0 | 5.0 | 0.00 | 0.00 | 0.49 | 99 | 1022.1 |
| 20260902020225 | 60 | 146 | 4.0 | 5.0 | 0.00 | 0.00 | 0.49 | 99 | 1021.7 |
| 20260902015723 | 60 | 136 | 4.0 | 6.0 | 0.00 | 0.00 | 0.49 | 99 | 1022.1 |
| 20260902015323 | 60 | 349 | 2.0 | 2.0 | 0.00 | 0.00 | 0.49 | 99 | 1022.1 |
| 20260902014827 | 60 | 287 | 3.0 | 5.0 | 0.00 | 0.00 | 0.49 | 99 | 1022.1 |
| 20260902014223 | 60 | 349 | 1.0 | 2.0 | 0.00 | 0.00 | 0.49 | 99 | 1022.1 |
| 20260902013723 | 60 | 66 | 2.0 | 5.0 | 0.00 | 0.00 | 0.49 | 99 | 1022.2 |
| 20260902013221 | 60 | 235 | 3.0 | 5.0 | 0.00 | 0.00 | 0.49 | 99 | 1022.2 |
| 20260902012722 | 60 | 12 | 3.0 | 3.0 | 0.00 | 0.00 | 0.49 | 99 | 1022.1 |
| 20260902012222 | 60 | 357 | 2.0 | 2.0 | 0.00 | 0.00 | 0.49 | 99 | 1022.1 |
| 20260902011721 | 60 | 30 | 2.0 | 3.0 | 0.00 | 0.00 | 0.49 | 99 | 1022.1 |
| 20260902011220 | 61 | 27 | 3.0 | 5.0 | 0.00 | 0.00 | 0.49 | 99 | 1022.1 |
| 20260902010721 | 61 | 2 | 2.0 | 3.0 | 0.00 | 0.00 | 0.49 | 99 | 1022.1 |
| 20260902010220 | 61 | 328 | 1.0 | 2.0 | 0.00 | 0.00 | 0.49 | 99 | 1022.1 |
| 20260902005719 | 61 | 29 | 2.0 | 3.0 | 0.00 | 0.00 | 0.49 | 99 | 1021.7 |
| 20260902005218 | 61 | 303 | 3.0 | 3.0 | 0.00 | 0.00 | 0.48 | 99 | 1021.7 |
| 20260902004720 | 61 | 343 | 1.0 | 1.0 | 0.00 | 0.00 | 0.48 | 99 | 1022.1 |
| 20260902004320 | 61 | 325 | 2.0 | 2.0 | 0.00 | 0.00 | 0.48 | 99 | 1021.7 |
| 20260902003818 | 61 | 311 | 2.0 | 2.0 | 0.00 | 0.00 | 0.48 | 99 | 1021.7 |
| 20260902003217 | 61 | 237 | 4.0 | 5.0 | 0.00 | 0.00 | 0.48 | 99 | 1021.5 |
| 20260902002716 | 61 | 347 | 2.0 | 2.0 | 0.00 | 0.00 | 0.48 | 99 | 1021.4 |
| 20260902002220 | 61 | 306 | 1.0 | 2.0 | 0.00 | 0.00 | 0.48 | 99 | 1021.4 |
| 20260902001757 | 61 | 350 | 1.0 | 2.0 | 0.00 | 0.00 | 0.47 | 99 | 1021.2 |
| 20260901231243 | 62 | 0.0 | 0.0 | 0.00 | 0.00 | 0.47 | 99 | 1021.0 | |
| 20260901230742 | 62 | 0.0 | 0.0 | 0.00 | 0.00 | 0.47 | 99 | 1021.0 | |
| 20260901230242 | 62 | 313 | 1.0 | 2.0 | 0.00 | 0.00 | 0.47 | 99 | 1021.0 |
| 20260901225841 | 62 | 319 | 0.0 | 1.0 | 0.00 | 0.00 | 0.47 | 99 | 1021.0 |
| 20260901225241 | 62 | 325 | 1.0 | 1.0 | 0.00 | 0.00 | 0.47 | 99 | 1021.0 |
| 20260901224741 | 62 | 320 | 0.0 | 1.0 | 0.00 | 0.00 | 0.47 | 99 | 1021.0 |
| 20260901223239 | 62 | 329 | 1.0 | 1.0 | 0.00 | 0.00 | 0.47 | 99 | 1021.0 |
| 20260901222240 | 62 | 301 | 2.0 | 2.0 | 0.00 | 0.00 | 0.47 | 99 | 1021.2 |
| 20260901221739 | 62 | 317 | 1.0 | 2.0 | 0.00 | 0.00 | 0.47 | 99 | 1021.0 |
| 20260901221238 | 62 | 309 | 1.0 | 2.0 | 0.00 | 0.00 | 0.47 | 99 | 1021.0 |
| 20260901220240 | 62 | 0.0 | 0.0 | 0.00 | 0.00 | 0.47 | 99 | 1020.7 | |
| 20260901215738 | 62 | 294 | 2.0 | 2.0 | 0.00 | 0.00 | 0.47 | 99 | 1020.7 |
| 20260901215237 | 62 | 327 | 1.0 | 1.0 | 0.00 | 0.00 | 0.46 | 99 | 1020.7 |
| 20260901214736 | 62 | 304 | 2.0 | 2.0 | 0.00 | 0.00 | 0.46 | 99 | 1020.7 |
| 20260901214237 | 62 | 338 | 1.0 | 1.0 | 0.00 | 0.00 | 0.46 | 99 | 1020.7 |
| 20260901213736 | 62 | 310 | 1.0 | 2.0 | 0.00 | 0.00 | 0.46 | 99 | 1020.7 |
| 20260901213235 | 62 | 332 | 0.0 | 1.0 | 0.00 | 0.00 | 0.46 | 99 | 1020.7 |
| 20260901212735 | 62 | 324 | 0.0 | 1.0 | 0.00 | 0.00 | 0.46 | 99 | 1020.7 |
| 20260901212236 | 62 | 314 | 1.0 | 2.0 | 0.00 | 0.00 | 0.46 | 99 | 1020.7 |
| 20260901211735 | 62 | 323 | 1.0 | 1.0 | 0.00 | 0.00 | 0.46 | 99 | 1020.7 |
| 20260901211234 | 62 | 305 | 1.0 | 2.0 | 0.00 | 0.00 | 0.46 | 99 | 1020.7 |
| 20260901210733 | 62 | 0.0 | 0.0 | 0.00 | 0.00 | 0.46 | 99 | 1020.3 | |
| 20260901210233 | 62 | 341 | 1.0 | 2.0 | 0.00 | 0.00 | 0.46 | 99 | 1020.7 |
| 20260901205734 | 62 | 314 | 1.0 | 1.0 | 0.00 | 0.00 | 0.46 | 99 | 1020.7 |
| 20260901205233 | 62 | 324 | 1.0 | 1.0 | 0.00 | 0.00 | 0.46 | 99 | 1020.7 |
| 20260901204732 | 62 | 336 | 0.0 | 1.0 | 0.00 | 0.00 | 0.46 | 99 | 1020.7 |
| 20260901204232 | 62 | 304 | 2.0 | 3.0 | 0.00 | 0.00 | 0.46 | 99 | 1020.7 |
| 20260901203733 | 62 | 325 | 1.0 | 2.0 | 0.00 | 0.00 | 0.46 | 99 | 1020.7 |
| 20260901203234 | 62 | 333 | 1.0 | 1.0 | 0.00 | 0.00 | 0.46 | 99 | 1020.7 |
| 20260901202831 | 62 | 0.0 | 0.0 | 0.00 | 0.00 | 0.46 | 99 | 1020.3 | |
| 20260901202230 | 62 | 318 | 1.0 | 2.0 | 0.00 | 0.00 | 0.46 | 99 | 1020.3 |
| 20260901201731 | 62 | 0.0 | 0.0 | 0.00 | 0.00 | 0.46 | 99 | 1020.3 | |
| 20260901201230 | 62 | 335 | 1.0 | 1.0 | 0.00 | 0.00 | 0.46 | 99 | 1020.3 |
| 20260901200732 | 62 | 0.0 | 0.0 | 0.00 | 0.00 | 0.46 | 99 | 1020.3 | |
| 20260901200231 | 62 | 343 | 2.0 | 3.0 | 0.00 | 0.00 | 0.46 | 99 | 1020.0 |
| 20260901195731 | 62 | 331 | 3.0 | 5.0 | 0.00 | 0.00 | 0.46 | 99 | 1020.3 |
| 20260901195229 | 62 | 313 | 0.0 | 1.0 | 0.00 | 0.00 | 0.46 | 99 | 1020.3 |
| 20260901194732 | 62 | 325 | 0.0 | 1.0 | 0.00 | 0.00 | 0.46 | 99 | 1020.3 |
| 20260901194230 | 61 | 321 | 1.0 | 2.0 | 0.00 | 0.00 | 0.46 | 99 | 1020.3 |
| 20260901193729 | 61 | 336 | 2.0 | 2.0 | 0.00 | 0.00 | 0.46 | 99 | 1020.3 |
| 20260901193228 | 61 | 284 | 3.0 | 3.0 | 0.00 | 0.00 | 0.46 | 99 | 1020.3 |
| 20260901192730 | 61 | 332 | 1.0 | 2.0 | 0.00 | 0.00 | 0.46 | 99 | 1020.3 |
| 20260901192228 | 61 | 307 | 1.0 | 2.0 | 0.00 | 0.00 | 0.46 | 99 | 1020.3 |
| 20260901191728 | 61 | 356 | 1.0 | 1.0 | 0.00 | 0.00 | 0.46 | 99 | 1020.3 |
| 20260901191227 | 61 | 323 | 1.0 | 2.0 | 0.00 | 0.00 | 0.46 | 99 | 1020.5 |
| 20260901190225 | 61 | 0.0 | 0.0 | 0.00 | 0.00 | 0.46 | 99 | 1020.7 | |
| 20260901185226 | 61 | 303 | 1.0 | 1.0 | 0.00 | 0.00 | 0.46 | 99 | 1020.7 |
| 20260901184724 | 61 | 8 | 2.0 | 3.0 | 0.00 | 0.00 | 0.46 | 99 | 1020.3 |
| 20260901184224 | 61 | 354 | 2.0 | 2.0 | 0.00 | 0.00 | 0.46 | 99 | 1020.5 |
| 20260901183725 | 61 | 321 | 3.0 | 3.0 | 0.00 | 0.00 | 0.46 | 99 | 1020.5 |
| 20260901183225 | 61 | 337 | 1.0 | 2.0 | 0.00 | 0.00 | 0.46 | 99 | 1020.3 |
| 20260901182724 | 61 | 0.0 | 0.0 | 0.00 | 0.00 | 0.46 | 99 | 1020.5 | |
| 20260901182224 | 61 | 329 | 1.0 | 2.0 | 0.00 | 0.00 | 0.46 | 99 | 1020.3 |
| 20260901181722 | 61 | 313 | 1.0 | 2.0 | 0.00 | 0.00 | 0.46 | 99 | 1020.3 |
| 20260901181223 | 61 | 330 | 0.0 | 1.0 | 0.00 | 0.00 | 0.46 | 99 | 1020.3 |
| 20260901180722 | 61 | 0.0 | 0.0 | 0.00 | 0.00 | 0.45 | 99 | 1020.3 | |
| 20260901180222 | 61 | 322 | 1.0 | 2.0 | 0.00 | 0.00 | 0.45 | 99 | 1020.3 |
| 20260901175720 | 61 | 328 | 0.0 | 1.0 | 0.00 | 0.00 | 0.45 | 99 | 1020.3 |
| 20260901175220 | 61 | 307 | 2.0 | 2.0 | 0.00 | 0.00 | 0.45 | 99 | 1020.3 |
| 20260901174721 | 61 | 322 | 1.0 | 2.0 | 0.00 | 0.00 | 0.45 | 99 | 1020.3 |
| 20260901174220 | 61 | 326 | 1.0 | 1.0 | 0.00 | 0.00 | 0.44 | 99 | 1020.3 |
| 20260901173721 | 60 | 0.0 | 0.0 | 0.00 | 0.00 | 0.44 | 99 | 1020.3 | |
| 20260901173218 | 61 | 326 | 0.0 | 1.0 | 0.00 | 0.00 | 0.44 | 99 | 1020.3 |
| 20260901172720 | 60 | 325 | 1.0 | 2.0 | 0.00 | 0.00 | 0.43 | 99 | 1020.3 |
| 20260901172219 | 60 | 321 | 1.0 | 1.0 | 0.00 | 0.00 | 0.43 | 99 | 1020.3 |
| 20260901171718 | 60 | 322 | 2.0 | 2.0 | 0.00 | 0.00 | 0.42 | 99 | 1020.3 |
| 20260901171219 | 60 | 333 | 0.0 | 1.0 | 0.00 | 0.00 | 0.41 | 99 | 1020.3 |
| 20260901170718 | 60 | 318 | 2.0 | 3.0 | 0.00 | 0.00 | 0.41 | 99 | 1020.3 |